Miscellaneous Local Product
Issued by NWS North Platte, NE

Home | Current Version | Previous Version | Graphics & Text | Print | Product List | Glossary On
Versions: 1 2 3 4 5 6 7 8 9 10 11 12 13 14 15 16 17 18 19 20 21 22 23 24 25 26 27 28 29 30 31 32 33 34 35 36 37 38 39 40 41 42 43 44 45 46 47 48 49 50
000
AXUS43 KLBF 241910
MISLBF


WESTERN AND NORTH CENTRAL NEBRASKA HOURLY WEATHER ROUNDUP
NATIONAL WEATHER SERVICE NORTH PLATTE NE
200 PM CDT TUE APR 24 2018

NOTE: "FAIR" INDICATES FEW OR NO CLOUDS BELOW 12,000 FEET WITH NO
SIGNIFICANT WEATHER AND/OR OBSTRUCTIONS TO VISIBILITY.

NOTE: STATIONS NOT REPORTING VARIABLES SUCH AS SKY/WEATHER OR
PRESSURE ARE PROVIDED BY RAWS AND APRS NETWORKS AND ARE NOT UNDER
NATIONAL WEATHER SERVICE QUALITY CONTROL.

...OBSERVATIONS IN AND NEAR THE EASTERN PANHANDLE OF NEBRASKA...

CITY           SKY/WX    TMP DP  RH WIND       PRES   REMARKS
PINE RIDGE     LGT RAIN  38  34  85 N13       30.45S WCI  30
GORDON         CLOUDY    37  33  86 N23       30.42S WCI  25
CHADRON        CLOUDY    40  31  70 N15       30.47F WCI  32
ALLIANCE       CLOUDY    36  31  82 N20G29    30.42S WCI  25
SIDNEY         CLOUDY    39  32  76 N23G29    30.40S WCI  28
CRESCENT LAKE    N/A     36  31  82 N21G35      N/A  WCI  25
$$

...OBSERVATIONS IN NORTHERN NEBRASKA AND FAR SOUTHERN SOUTH DAKOTA...

CITY           SKY/WX    TMP DP  RH WIND       PRES   REMARKS
WINNER         LGT RAIN  42  38  85 N22G32    30.35S FOG
VALENTINE      CLOUDY    40  36  86 N20G30    30.36R WCI  30
AINSWORTH      LGT RAIN  39  39 100 N25G32    30.31S WCI  28
O`NEILL        CLOUDY    51  48  90 N9        30.23S
THEDFORD       CLOUDY    40  35  82 N21G33    30.33S WCI  31
BROKEN BOW     CLOUDY    42  38  85 NW23G32   30.27F
ORD            LGT RAIN  44  41  89 NW21G30   30.24S FOG
ALBION         RAIN      47  46  93 NW10      30.22F
VALENTINE NWR    N/A     37  35  93 N20G29      N/A  WCI  26
HALSEY           N/A     39  35  86 NW13G25     N/A  WCI  31
BUTTE            N/A     43  40  91 N16G24      N/A
CHAMBERS         N/A     47  46  96 N3          N/A
EWING            N/A     47  45  94 NW7         N/A
$$

...OBSERVATIONS IN SOUTHWEST NEBRASKA AND FAR NORTHEAST COLORADO...

CITY           SKY/WX    TMP DP  RH WIND       PRES   REMARKS
WRAY           CLOUDY    41  34  75 N20G25    30.39S
HOLYOKE        CLOUDY    43  36  75 N29G35    30.38S
IMPERIAL       CLOUDY    42  37  82 N23G32    30.36S
OGALLALA       CLOUDY    43  35  73 N21G28    30.37S
NORTH PLATTE   CLOUDY    42  36  79 N17G29    30.34S
MCCOOK         CLOUDY    43  40  89 NW21G28   30.33S
LEXINGTON      CLOUDY    45  40  84 NW17      30.31S
STAPLETON        N/A     39  36  88 N3G17       N/A
GOTHENBURG       N/A     41  36  81 NW16        N/A
CALLAWAY         N/A     40  38  92 N17         N/A  WCI  31
$$

...OBSERVATIONS IN CENTRAL LINCOLN COUNTY AREA...

CITY           SKY/WX    TMP DP  RH WIND       PRES   REMARKS
N.P. AIRPORT   CLOUDY    42  36  79 N17G29    30.34S
N.P. DOWNTOWN    N/A     41  37  86 N8          N/A
N.P. SOUTHEAST   N/A     40  35  82 N12G22      N/A  WCI  33
N.P. HILLCREST   N/A     39  38  97 N20G26      N/A  WCI  29
$$

...OBSERVATIONS ACROSS THE ROCKIES AND WESTERN HIGH PLAINS...

CITY           SKY/WX    TMP DP  RH WIND       PRES   REMARKS
RAPID CITY     CLOUDY    41  29  62 N22       30.46S
SCOTTSBLUFF    CLOUDY    43  34  70 N10       30.44F
CHEYENNE       PTSUNNY   38  25  59 N21G26    30.39F WCI  28
DENVER         CLOUDY    37  29  72 N14       30.41F WCI  28
BERTHOUD PASS  CLOUDY    23  12  63 W14G22    30.34S WCI  11
MONARCH PASS   PTSUNNY   37  27  65 W23G31    30.46F WCI  26
ASPEN          PTSUNNY   55  33  43 N8        30.19F
STEAMBOAT      FAIR      45  31  57 SW7       30.29F
LARAMIE        CLOUDY    35  19  52 N16G24    30.37F WCI  25
CASPER         CLOUDY    39  24  55 N13       30.47F WCI  31
$$

...OBSERVATIONS ACROSS THE NORTHERN PLAINS...

CITY           SKY/WX    TMP DP  RH WIND       PRES   REMARKS
BISMARCK       SUNNY     55  25  31 N20       30.44F
FARGO          FAIR      53  34  48 NW21      30.36S
PIERRE         CLOUDY    41  37  86 N17       30.41S
SIOUX FALLS    CLOUDY    46  39  76 NE18      30.23S
$$

...OBSERVATIONS ACROSS THE CENTRAL AND SOUTHERN PLAINS...

CITY           SKY/WX    TMP DP  RH WIND       PRES   REMARKS
OMAHA          CLOUDY    75  36  24 SW8       30.10F
GRAND ISLAND   LGT RAIN  45  42  89 NW15G25   30.27S
KANSAS CITY    PTSUNNY   75  33  21 NE10G21   30.09F
WICHITA        PTSUNNY   77  38  24 VRB7G17   30.12S
DODGE CITY     CLOUDY    48  40  73 N23G32    30.25F
OKLAHOMA CITY  MOSUNNY   74  45  35 VRB3      30.09F
DALLAS         MOSUNNY   80  47  31 NE7       30.06F
AMARILLO       PTSUNNY   72  46  39 E14       30.16S
$$




USA.gov is the U.S. government's official web portal to all federal, state and local government web resources and services.